CGAS EGTK-EGGD

Flight info

Callsign CGAS
Flight time 0h 29m
Altitude 12000
Route CONKO DCT POMAX
Aircraft PC12/L-SDFGRWY/S

Departure

Time 2026-04-21 21:47
Airport London Oxford Airport (EGTK)

Arrival

Time 2026-04-21 22:16
Airport Bristol Airport (EGGD)
Time Latitude Longitude Altitude Speed Heading
2026-04-21 21:30 51.83298 -1.31700 264 ft 0 kts 271°
2026-04-21 21:39 51.83298 -1.31706 237 ft 3 kts 274°
2026-04-21 21:39 51.83236 -1.31672 264 ft 22 kts 148°
2026-04-21 21:40 51.83145 -1.31557 263 ft 15 kts 154°
2026-04-21 21:40 51.83100 -1.31526 263 ft 0 kts 171°
2026-04-21 21:43 51.83099 -1.31526 263 ft 2 kts 171°
2026-04-21 21:43 51.83048 -1.31543 262 ft 12 kts 220°
2026-04-21 21:44 51.83018 -1.31689 262 ft 15 kts 259°
2026-04-21 21:44 51.82995 -1.31921 261 ft 14 kts 261°
2026-04-21 21:44 51.82986 -1.32033 261 ft 0 kts 268°
2026-04-21 21:45 51.82990 -1.32109 261 ft 13 kts 289°
2026-04-21 21:45 51.83059 -1.32191 263 ft 7 kts 18°
2026-04-21 21:45 51.83092 -1.32179 263 ft 0 kts
2026-04-21 21:46 51.83144 -1.32163 262 ft 33 kts 12°
2026-04-21 21:47 51.83597 -1.32027 267 ft 97 kts
2026-04-21 21:47 51.84350 -1.31813 594 ft 115 kts 14°
2026-04-21 21:47 51.85218 -1.31616 1140 ft 141 kts 15°
2026-04-21 21:47 51.85992 -1.30902 2094 ft 121 kts 66°
2026-04-21 21:48 51.85797 -1.29602 2710 ft 150 kts 133°
2026-04-21 21:48 51.84639 -1.29431 3248 ft 193 kts 196°
2026-04-21 21:48 51.83712 -1.31095 3954 ft 215 kts 243°
2026-04-21 21:48 51.82883 -1.33110 4155 ft 227 kts 208°
2026-04-21 21:49 51.81460 -1.33968 4336 ft 223 kts 175°
2026-04-21 21:49 51.80060 -1.33161 4349 ft 214 kts 135°
2026-04-21 21:49 51.79428 -1.31087 4418 ft 207 kts 93°
2026-04-21 21:49 51.79155 -1.28976 5167 ft 187 kts 123°
2026-04-21 21:50 51.78076 -1.28031 6297 ft 173 kts 160°
2026-04-21 21:50 51.76979 -1.27673 7511 ft 148 kts 159°
2026-04-21 21:50 51.76020 -1.27263 8467 ft 143 kts 155°
2026-04-21 21:50 51.75047 -1.26808 9288 ft 147 kts 156°
2026-04-21 21:51 51.74062 -1.26345 10145 ft 149 kts 156°
2026-04-21 21:51 51.73073 -1.25880 10899 ft 152 kts 156°
2026-04-21 21:51 51.72048 -1.25397 11663 ft 155 kts 157°
2026-04-21 21:51 51.70999 -1.24903 12415 ft 160 kts 157°
2026-04-21 21:52 51.69920 -1.24395 13160 ft 163 kts 158°
2026-04-21 21:52 51.68815 -1.23876 13929 ft 167 kts 158°
2026-04-21 21:52 51.67684 -1.23345 14630 ft 171 kts 159°
2026-04-21 21:52 51.66530 -1.22804 15330 ft 174 kts 160°
2026-04-21 21:53 51.65356 -1.22252 16043 ft 177 kts 160°
2026-04-21 21:53 51.64159 -1.21690 16765 ft 181 kts 161°
2026-04-21 21:53 51.62957 -1.21127 17478 ft 184 kts 162°
2026-04-21 21:53 51.61719 -1.20547 18205 ft 187 kts 162°
2026-04-21 21:54 51.60446 -1.20018 18859 ft 192 kts 176°
2026-04-21 21:54 51.59229 -1.20740 19447 ft 190 kts 230°
2026-04-21 21:54 51.58818 -1.22626 20080 ft 179 kts 279°
2026-04-21 21:54 51.58959 -1.24615 20696 ft 185 kts 277°
2026-04-21 21:55 51.58899 -1.26895 20715 ft 222 kts 269°
2026-04-21 21:55 51.58693 -1.29487 20759 ft 242 kts 267°
2026-04-21 21:55 51.58469 -1.32240 20822 ft 255 kts 268°
2026-04-21 21:55 51.58260 -1.35119 20900 ft 264 kts 268°
2026-04-21 21:56 51.58049 -1.38076 20982 ft 268 kts 268°
2026-04-21 21:56 51.57832 -1.41034 21060 ft 271 kts 268°
2026-04-21 21:56 51.57606 -1.44085 21136 ft 272 kts 268°
2026-04-21 21:56 51.57387 -1.47052 21205 ft 271 kts 268°
2026-04-21 21:57 51.57164 -1.50060 21276 ft 271 kts 268°
2026-04-21 21:57 51.56941 -1.53065 21351 ft 270 kts 268°
2026-04-21 21:57 51.56718 -1.56061 21417 ft 270 kts 268°
2026-04-21 21:57 51.56493 -1.59095 21213 ft 278 kts 268°
2026-04-21 21:58 51.56260 -1.62213 20862 ft 282 kts 268°
2026-04-21 21:58 51.56024 -1.65304 20494 ft 276 kts 267°
2026-04-21 21:58 51.55792 -1.68345 20134 ft 273 kts 267°
2026-04-21 21:58 51.55565 -1.71368 19775 ft 274 kts 267°
2026-04-21 21:59 51.55332 -1.74455 19411 ft 282 kts 266°
2026-04-21 21:59 51.55094 -1.77567 19041 ft 286 kts 266°
2026-04-21 21:59 51.54849 -1.80739 18663 ft 286 kts 266°
2026-04-21 21:59 51.54605 -1.83892 18252 ft 283 kts 265°
2026-04-21 22:00 51.54364 -1.87020 17872 ft 281 kts 265°
2026-04-21 22:00 51.54124 -1.90126 17499 ft 282 kts 265°
2026-04-21 22:00 51.53880 -1.93270 17120 ft 284 kts 266°
2026-04-21 22:00 51.53634 -1.96411 16754 ft 282 kts 266°
2026-04-21 22:01 51.53387 -1.99572 16380 ft 289 kts 265°
2026-04-21 22:01 51.53139 -2.02763 16004 ft 294 kts 264°
2026-04-21 22:01 51.52875 -2.06082 15608 ft 296 kts 264°
2026-04-21 22:01 51.52473 -2.09279 15214 ft 298 kts 251°
2026-04-21 22:02 51.51752 -2.12404 14831 ft 299 kts 249°
2026-04-21 22:02 51.51029 -2.15534 14439 ft 300 kts 249°
2026-04-21 22:02 51.50318 -2.18693 13833 ft 304 kts 249°
2026-04-21 22:02 51.49604 -2.21867 13323 ft 301 kts 249°
2026-04-21 22:03 51.48896 -2.24989 12919 ft 292 kts 249°
2026-04-21 22:03 51.48214 -2.27980 12538 ft 280 kts 248°
2026-04-21 22:03 51.47556 -2.30862 12174 ft 277 kts 248°
2026-04-21 22:03 51.46898 -2.33745 11814 ft 275 kts 248°
2026-04-21 22:04 51.46241 -2.36623 11455 ft 274 kts 248°
2026-04-21 22:04 51.45579 -2.39520 11089 ft 274 kts 248°
2026-04-21 22:04 51.44919 -2.42391 10730 ft 275 kts 248°
2026-04-21 22:04 51.44263 -2.45257 10371 ft 272 kts 248°
2026-04-21 22:05 51.43621 -2.48061 9865 ft 259 kts 248°
2026-04-21 22:05 51.42873 -2.50677 8609 ft 265 kts 229°
2026-04-21 22:05 51.41440 -2.52279 7792 ft 245 kts 194°
2026-04-21 22:05 51.40009 -2.53747 7066 ft 250 kts 229°
2026-04-21 22:06 51.39551 -2.56194 7020 ft 225 kts 273°
2026-04-21 22:06 51.39923 -2.58712 7007 ft 239 kts 285°
2026-04-21 22:06 51.40182 -2.61417 7009 ft 254 kts 271°
2026-04-21 22:06 51.40012 -2.64265 7008 ft 261 kts 253°
2026-04-21 22:07 51.39379 -2.66999 7010 ft 262 kts 243°
2026-04-21 22:07 51.38632 -2.69668 7006 ft 263 kts 243°
2026-04-21 22:07 51.38104 -2.72473 6954 ft 268 kts 260°
2026-04-21 22:07 51.38002 -2.75464 6551 ft 274 kts 266°
2026-04-21 22:08 51.37928 -2.78506 6166 ft 273 kts 265°
2026-04-21 22:08 51.37821 -2.81534 5772 ft 270 kts 265°
2026-04-21 22:08 51.37717 -2.84434 5407 ft 252 kts 265°
2026-04-21 22:08 51.37625 -2.87129 5073 ft 233 kts 264°
2026-04-21 22:09 51.37540 -2.89619 4775 ft 215 kts 264°
2026-04-21 22:09 51.37462 -2.91899 4503 ft 196 kts 264°
2026-04-21 22:09 51.37385 -2.94026 4252 ft 189 kts 263°
2026-04-21 22:09 51.37429 -2.96080 4017 ft 189 kts 290°
2026-04-21 22:10 51.38291 -2.97502 3804 ft 171 kts 352°
2026-04-21 22:10 51.39303 -2.97273 3650 ft 141 kts 43°
2026-04-21 22:10 51.39974 -2.96229 3497 ft 131 kts 68°
2026-04-21 22:10 51.40177 -2.94874 3341 ft 124 kts 95°
2026-04-21 22:11 51.39894 -2.93589 3190 ft 126 kts 120°
2026-04-21 22:11 51.39277 -2.92573 3024 ft 128 kts 128°
2026-04-21 22:11 51.38662 -2.91550 2855 ft 127 kts 125°
2026-04-21 22:11 51.38065 -2.90508 2676 ft 127 kts 124°
2026-04-21 22:12 51.37727 -2.89301 2515 ft 119 kts 95°
2026-04-21 22:12 51.37709 -2.87999 2484 ft 117 kts 90°
2026-04-21 22:12 51.37723 -2.86658 2351 ft 121 kts 88°
2026-04-21 22:12 51.37755 -2.85348 2187 ft 118 kts 88°
2026-04-21 22:13 51.37795 -2.84097 2039 ft 104 kts 86°
2026-04-21 22:13 51.37835 -2.83081 1891 ft 85 kts 86°
2026-04-21 22:13 51.37873 -2.82160 1778 ft 82 kts 85°
2026-04-21 22:13 51.37904 -2.81290 1678 ft 73 kts 86°
2026-04-21 22:14 51.37935 -2.80545 1592 ft 62 kts 86°
2026-04-21 22:14 51.37960 -2.79858 1499 ft 63 kts 86°
2026-04-21 22:14 51.37990 -2.79157 1409 ft 63 kts 82°
2026-04-21 22:14 51.38017 -2.78427 1318 ft 69 kts 85°
2026-04-21 22:15 51.38041 -2.77637 1209 ft 72 kts 85°
2026-04-21 22:15 51.38075 -2.76853 1114 ft 69 kts 83°
2026-04-21 22:15 51.38103 -2.76062 1011 ft 73 kts 81°
2026-04-21 22:15 51.38132 -2.75257 919 ft 74 kts 82°
2026-04-21 22:16 51.38121 -2.74463 769 ft 74 kts 82°
2026-04-21 22:16 51.38198 -2.73541 736 ft 84 kts 83°
2026-04-21 22:16 51.38233 -2.72725 618 ft 62 kts 83°
2026-04-21 22:16 51.38262 -2.72148 613 ft 43 kts 85°
2026-04-21 22:17 51.38282 -2.71632 620 ft 49 kts 86°
2026-04-21 22:17 51.38300 -2.71126 607 ft 45 kts 86°
2026-04-21 22:17 51.38337 -2.70771 619 ft 25 kts 40°
2026-04-21 22:17 51.38473 -2.70737 613 ft 19 kts 296°
2026-04-21 22:18 51.38467 -2.70880 609 ft 0 kts 267°
2026-04-21 22:21 51.38492 -2.70901 611 ft 13 kts 353°
2026-04-21 22:21 51.38526 -2.70890 615 ft 0 kts 84°
2026-04-21 22:32 51.38525 -2.70854 620 ft 10 kts 109°
2026-04-21 22:32 51.38469 -2.70787 613 ft 0 kts 97°
2026-04-21 22:32 51.38470 -2.70771 609 ft 0 kts 82°
2026-04-21 22:33 51.38450 -2.70707 609 ft 12 kts 164°
2026-04-21 22:33 51.38380 -2.70739 619 ft 11 kts 200°
2026-04-21 22:33 51.38314 -2.70783 610 ft 8 kts 257°
2026-04-21 22:33 51.38318 -2.70850 607 ft 0 kts 261°
2026-04-21 22:34 51.38313 -2.71051 607 ft 55 kts 266°
2026-04-21 22:34 51.38263 -2.72065 670 ft 115 kts 265°
2026-04-21 22:35 51.38197 -2.73462 1098 ft 136 kts 266°
2026-04-21 22:35 51.38125 -2.75148 1625 ft 160 kts 268°
2026-04-21 22:35 51.38020 -2.77009 2408 ft 167 kts 262°
2026-04-21 22:35 51.37447 -2.78328 3212 ft 146 kts 184°
2026-04-21 22:36 51.36572 -2.76539 4843 ft 124 kts 64°
2026-04-21 22:36 51.36896 -2.74961 4713 ft 177 kts 91°
2026-04-21 22:36 51.36826 -2.73126 3943 ft 161 kts 93°
2026-04-21 22:37 51.36946 -2.71371 3184 ft 155 kts 82°
2026-04-21 22:37 51.37107 -2.69706 2890 ft 148 kts 87°
2026-04-21 22:37 51.37146 -2.68062 2418 ft 148 kts 91°
2026-04-21 22:37 51.37080 -2.66462 1936 ft 135 kts 95°
2026-04-21 22:38 51.37418 -2.65377 1923 ft 122 kts 36°
2026-04-21 22:38 51.38252 -2.65603 1700 ft 127 kts 330°
2026-04-21 22:38 51.38504 -2.66917 1291 ft 125 kts 262°
2026-04-21 22:38 51.38390 -2.68219 1031 ft 115 kts 269°
2026-04-21 22:39 51.38364 -2.69477 815 ft 113 kts 271°
2026-04-21 22:39 51.38317 -2.70659 634 ft 99 kts 269°
2026-04-21 22:39 51.38281 -2.71730 613 ft 92 kts 269°
2026-04-21 22:39 51.38237 -2.72906 855 ft 119 kts 266°
2026-04-21 22:40 51.38170 -2.74450 1278 ft 152 kts 270°
2026-04-21 22:40 51.38180 -2.76208 1955 ft 163 kts 260°
2026-04-21 22:40 51.37507 -2.77337 2664 ft 128 kts 170°
2026-04-21 22:40 51.36771 -2.77250 3733 ft 82 kts 154°
2026-04-21 22:41 51.36335 -2.76865 4302 ft 92 kts 113°
2026-04-21 22:41 51.36303 -2.75601 4516 ft 128 kts 85°
2026-04-21 22:41 51.36422 -2.74206 5043 ft 135 kts 84°
2026-04-21 22:41 51.36632 -2.72713 5503 ft 137 kts 77°
2026-04-21 22:42 51.36904 -2.71346 5393 ft 130 kts 82°
2026-04-21 22:42 51.37072 -2.69752 4421 ft 159 kts 85°
2026-04-21 22:42 51.37252 -2.67866 3319 ft 183 kts 83°
2026-04-21 22:42 51.37405 -2.65860 2737 ft 174 kts 85°
2026-04-21 22:43 51.38156 -2.65079 3067 ft 145 kts 351°
2026-04-21 22:43 51.38516 -2.66795 1758 ft 189 kts 263°
2026-04-21 22:43 51.38381 -2.68621 918 ft 147 kts 272°
2026-04-21 22:43 51.38338 -2.70035 682 ft 113 kts 269°
2026-04-21 22:44 51.38296 -2.71176 614 ft 93 kts 272°
2026-04-21 22:44 51.38262 -2.72132 613 ft 82 kts 265°
2026-04-21 22:44 51.38223 -2.73027 621 ft 73 kts 263°
2026-04-21 22:44 51.38254 -2.73349 613 ft 27 kts 336°
2026-04-21 22:45 51.38384 -2.73224 616 ft 20 kts 82°
2026-04-21 22:45 51.38393 -2.73049 612 ft 12 kts 85°
2026-04-21 22:45 51.38397 -2.72952 617 ft 7 kts 88°
2026-04-21 22:45 51.38400 -2.72838 612 ft 13 kts 86°
2026-04-21 22:46 51.38405 -2.72680 612 ft 16 kts 86°
2026-04-21 22:46 51.38415 -2.72490 611 ft 18 kts 88°
2026-04-21 22:46 51.38421 -2.72277 611 ft 20 kts 85°
2026-04-21 22:46 51.38431 -2.72041 611 ft 24 kts 85°
2026-04-21 22:47 51.38452 -2.71712 610 ft 34 kts 83°
2026-04-21 22:47 51.38485 -2.71371 615 ft 0 kts 79°
2026-04-21 22:47 51.38478 -2.71430 610 ft 1 kts 80°
2026-04-21 22:47 51.38479 -2.71423 610 ft 0 kts 79°